Location: Moosonee
(51.2731°N, 80.6400°W)
Time: 23:40:41
(UTC-04:00)

ISS - Visible Passes

Search period start: 25 September 2017 00:00
Search period end: 05 October 2017 00:00
Orbit: 401 x 407 km, 51.6° (Epoch: 26 September)

Date Brightness Start Highest point End Pass type
(mag) Time Alt. Az. Time Alt. Az. Time Alt. Az.
25 Sep -1.0 21:30:15 10° SW 21:30:16 10° SSW 21:30:16 10° SSW visible
26 Sep -2.2 20:38:29 10° SSW 20:40:35 20° SSE 20:40:35 20° SSE visible
27 Sep -1.7 19:47:12 10° S 19:48:53 13° SE 19:50:35 10° ESE visible
27 Sep -2.2 21:21:36 10° SW 21:23:22 27° SW 21:23:22 27° SW visible
28 Sep -3.1 20:29:30 10° SW 20:32:31 35° SSE 20:33:19 30° ESE visible
28 Sep -0.8 22:05:32 10° W 22:05:58 13° W 22:05:58 13° W visible
29 Sep -2.4 19:37:35 10° SSW 19:40:17 24° SSE 19:42:59 10° E visible
29 Sep -3.3 21:13:09 10° WSW 21:15:48 54° SW 21:15:48 54° SW visible
30 Sep -3.7 20:20:51 10° WSW 20:24:04 57° SSE 20:25:32 28° E visible
30 Sep -1.1 21:57:13 10° W 21:58:11 18° W 21:58:11 18° W visible
01 Oct -3.1 19:28:38 10° SW 19:31:43 40° SSE 19:34:50 10° E visible
01 Oct -3.7 21:04:47 10° W 21:07:50 75° W 21:07:50 75° W visible
02 Oct -3.9 20:12:22 10° WSW 20:15:38 81° SSE 20:17:26 25° E visible
02 Oct -1.2 21:48:52 10° W 21:50:04 21° W 21:50:04 21° W visible
03 Oct -3.9 20:56:24 10° W 20:59:37 81° NNW 20:59:37 81° NNW visible
04 Oct -3.9 20:03:56 10° W 20:07:13 84° N 20:09:09 23° E visible
04 Oct -1.4 21:40:26 10° W 21:41:47 22° W 21:41:47 22° W visible
